Location: Gerlach
(40.6516°N, 119.3568°W)
Time: 09:31:08
(UTC-08:00)

Transit 4A - Visible Passes

Search period start: 22 February 2024 00:00
Search period end: 03 March 2024 00:00
Orbit: 869 x 974 km, 66.8° (Epoch: 21 February)

Date Brightness Start Highest point End Pass type
(mag) Time Alt. Az. Time Alt. Az. Time Alt. Az.
22 Feb 10.6 02:29:15 10° NNE 02:29:15 10° NNE 02:29:16 10° NNE visible
22 Feb 10.1 04:12:44 12° NNW 04:12:44 12° NNW 04:13:37 10° N visible
23 Feb 10.6 02:38:04 10° NNE 02:38:04 10° NNE 02:38:11 10° NNE visible
24 Feb 10.5 02:46:51 11° N 02:46:51 11° N 02:47:00 10° N visible
25 Feb 10.5 02:55:38 10° N 02:55:38 10° N 02:55:41 10° N visible
